Amarillo, TX

11:04 AM CDT on July 16, 2019 (GMT -0500)
Amarillo International

Weather History for KAMA - June, 2019

Change the Weather History Date:

Friday, June 14, 2019

  Actual Average Record
Temperature  
Mean Temperature 78 °F 74 °F  
Max Temperature 95 °F 88 °F 107 °F (1953)
Min Temperature 60 °F 61 °F 44 °F (1947)
Degree Days  
Heating Degree Days 0 0  
Month to date heating degree days 4 5  
Since 1 June heating degree days 4 5  
Since 1 July heating degree days 4106 4176  
Cooling Degree Days 13 9  
Month to date cooling degree days 71 108  
Year to date cooling degree days 133 233  
Since 1 June cooling degree days 71 108  
Growing Degree Days 28 (Base 50)    
Moisture  
Dew Point 56 °F    
Average Humidity 55    
Maximum Humidity 90    
Minimum Humidity 19    
Precipitation  
Precipitation 0.00 in 0.11 in 1.62 in (1962)
Month to date precipitation 2.59 1.62  
Year to date precipitation 10.37 7.98  
Snow  
Snow 0.00 in 0.00 in T in (2008)
Month to date snowfall 0.0 0.0  
Since 1 June snowfall 0.0 0.0  
Since 1 July snowfall 8.1 17.8  
Snow Depth 0.00 in    
Sea Level Pressure  
Sea Level Pressure 29.75 in    
Wind  
Wind Speed 17 mph (South)    
Max Wind Speed 32 mph    
Max Gust Speed 39 mph    
Visibility 10 miles    
Events Rain , Thunderstorm    
T = Trace of Precipitation, MM = Missing Value Source: NWS Daily Summary

Daily Weather History Graph

Daily Weather History Graph

Search for Another Location

Airport or City:

Astronomy

Jun. 14, 2019 Rise Set
Actual Time 6:31 AM CDT 9:02 PM CDT
Civil Twilight 6:01 AM CDT 9:32 PM CDT
Nautical Twilight 5:25 AM CDT 10:09 PM CDT
Astronomical Twilight 4:44 AM CDT 10:50 PM CDT
Moon 6:32 PM CDT (6/14) 4:43 AM CDT (6/14)
Length of Visible Light 15h 30m
Length of Day
14h 30m
Waxing Gibbous, 92% of the Moon is Illuminated
Jun 14
Waxing Gibbous
Jun 17
Full
Jun 25
Last Quarter
Jul 2
New
Jul 9
First Quarter

Hourly Weather History & Observations

Time (CDT) Temp. Heat Index Dew Point Humidity Pressure Visibility Wind Dir Wind Speed Gust Speed Precip Events Conditions
12:21 AM 61.0 °F - 55.9 °F 83% 30.13 in 6.0 mi North 13.8 mph - 0.04 in Rain , Thunderstorm Thunderstorms and Rain
12:44 AM 62.1 °F - 57.0 °F 84% 30.04 in 10.0 mi ENE 17.3 mph - 0.06 in Rain , Thunderstorm Light Rain
12:53 AM 62.1 °F - 57.0 °F 84% 29.87 in 10.0 mi ESE 17.3 mph - 0.06 in Rain , Thunderstorm Light Rain
12:56 AM 62.1 °F - 57.0 °F 84% 29.98 in 10.0 mi ESE 20.7 mph - 0.00 in   Mostly Cloudy
1:53 AM 63.0 °F - 55.9 °F 78% 29.86 in 10.0 mi SE 15.0 mph - 0.00 in   Clear
2:53 AM 61.0 °F - 57.0 °F 87% 29.86 in 10.0 mi SE 18.4 mph - N/A   Partly Cloudy
3:53 AM 61.0 °F - 57.0 °F 87% 29.81 in 10.0 mi SE 17.3 mph - N/A   Clear
4:53 AM 60.1 °F - 57.0 °F 90% 29.78 in 10.0 mi SSE 11.5 mph - N/A   Clear
5:53 AM 63.0 °F - 57.9 °F 84% 29.75 in 10.0 mi SSE 16.1 mph 25.3 mph N/A   Clear
6:53 AM 62.1 °F - 57.0 °F 84% 29.77 in 10.0 mi SSE 18.4 mph 26.5 mph N/A   Clear
7:53 AM 63.0 °F - 57.9 °F 84% 29.77 in 10.0 mi South 17.3 mph 24.2 mph N/A   Clear
8:53 AM 66.9 °F - 61.0 °F 81% 29.75 in 10.0 mi South 16.1 mph - N/A   Clear
9:53 AM 73.9 °F - 62.1 °F 66% 29.73 in 10.0 mi SSW 25.3 mph 31.1 mph N/A   Clear
10:53 AM 79.0 °F - 61.0 °F 54% 29.70 in 10.0 mi SW 18.4 mph 27.6 mph N/A   Clear
11:53 AM 82.0 °F 82.0 °F 57.9 °F 44% 29.73 in 10.0 mi WSW 16.1 mph - N/A   Clear
12:53 PM 86.0 °F 85.0 °F 57.9 °F 38% 29.70 in 10.0 mi WSW 17.3 mph - N/A   Clear
1:53 PM 88.0 °F 86.1 °F 55.0 °F 32% 29.68 in 10.0 mi West 10.4 mph - N/A   Clear
2:53 PM 91.0 °F 89.2 °F 55.9 °F 30% 29.66 in 10.0 mi SW 13.8 mph - N/A   Clear
3:53 PM 84.9 °F 83.2 °F 53.1 °F 33% 29.66 in 10.0 mi SW 10.4 mph - N/A   Clear
4:53 PM 91.0 °F - 50.0 °F 24% 29.61 in 10.0 mi SSW 9.2 mph - N/A   Clear
5:53 PM 93.9 °F - 45.0 °F 18% 29.59 in 10.0 mi SW 15.0 mph 27.6 mph N/A   Clear
6:53 PM 90.0 °F - 52.0 °F 27% 29.58 in 10.0 mi SSE 18.4 mph 32.2 mph N/A   Clear
7:53 PM 84.0 °F 83.0 °F 55.9 °F 38% 29.58 in 10.0 mi SSE 17.3 mph - N/A   Clear
8:53 PM 82.9 °F 82.4 °F 57.0 °F 41% 29.57 in 10.0 mi SSE 18.4 mph - N/A   Clear